QPF
0.02 0.04 0.03 0.04 0.04 0.04 0.05 0.05 0.04 0.05 0.07 0.09 0.10 0.10 0.10 0.08 0.10 0.08 0.05 0.06 0.07 0.07 0.08 0.08 0.08 0.08 0.08 0.06 0.06 0.05 0.04 0.03 0.02 0.02 0.02 0.03 0.02 0.03 0.03 0.03 0.03 0.03 0.03
0.02 0.03 0.03 0.04 0.04 0.04 0.05 0.06 0.05 0.05 0.07 0.09 0.11 0.12 0.12 0.11 0.08 0.06 0.06 0.06 0.07 0.06 0.08 0.09 0.09 0.09 0.08 0.06 0.06 0.05 0.04 0.03 0.03 0.03 0.02 0.02 0.02 0.02 0.02 0.02 0.02 0.02 0.02
0.02 0.02 0.03 0.03 0.03 0.03 0.04 0.06 0.07 0.06 0.08 0.11 0.12 0.12 0.12 0.12 0.09 0.09 0.10 0.08 0.06 0.06 0.07 0.08 0.09 0.10 0.10 0.09 0.09 0.07 0.06 0.04 0.04 0.04 0.03 0.03 0.03 0.03 0.03 0.02 0.02 0.02 0.02
0.02 0.02 0.03 0.03 0.04 0.04 0.05 0.05 0.06 0.07 0.08 0.10 0.13 0.12 0.11 0.10 0.11 0.09 0.10 0.09 0.07 0.07 0.07 0.08 0.13 0.13 0.12 0.13 0.12 0.11 0.09 0.07 0.06 0.05 0.05 0.04 0.04 0.04 0.04 0.04 0.04 0.03 0.02
0.02 0.03 0.04 0.04 0.06 0.06 0.06 0.05 0.04 0.06 0.08 0.07 0.10 0.10 0.08 0.08 0.08 0.07 0.07 0.08 0.08 0.10 0.12 0.10 0.14 0.15 0.15 0.14 0.13 0.12 0.09 0.08 0.07 0.09 0.09 0.08 0.07 0.07 0.05 0.05 0.05 0.04 0.04
0.03 0.03 0.04 0.06 0.07 0.07 0.07 0.07 0.06 0.07 0.07 0.07 0.09 0.08 0.09 0.09 0.08 0.07 0.06 0.08 0.09 0.12 0.15 0.12 0.11 0.14 0.14 0.13 0.12 0.12 0.10 0.07 0.06 0.07 0.08 0.09 0.09 0.07 0.05 0.05 0.05 0.05 0.04
0.05 0.04 0.04 0.03 0.04 0.05 0.06 0.06 0.06 0.06 0.08 0.08 0.09 0.10 0.11 0.11 0.09 0.06 0.05 0.08 0.10 0.12 0.13 0.12 0.12 0.12 0.10 0.09 0.09 0.08 0.08 0.07 0.06 0.08 0.08 0.08 0.08 0.07 0.05 0.05 0.04 0.04 0.04
0.05 0.04 0.04 0.03 0.04 0.04 0.04 0.05 0.05 0.06 0.07 0.07 0.09 0.09 0.09 0.10 0.09 0.08 0.09 0.09 0.10 0.11 0.11 0.12 0.11 0.08 0.06 0.05 0.05 0.04 0.06 0.09 0.09 0.08 0.07 0.07 0.07 0.07 0.06 0.05 0.04 0.04 0.03
0.04 0.04 0.03 0.03 0.04 0.05 0.04 0.04 0.04 0.04 0.06 0.05 0.07 0.08 0.07 0.05 0.06 0.08 0.09 0.11 0.09 0.09 0.09 0.09 0.09 0.07 0.06 0.06 0.05 0.04 0.04 0.05 0.07 0.09 0.09 0.08 0.07 0.06 0.08 0.08 0.09 0.08 0.05
0.03 0.03 0.03 0.04 0.03 0.04 0.03 0.04 0.04 0.06 0.06 0.03 0.04 0.04 0.05 0.06 0.05 0.06 0.08 0.09 0.09 0.08 0.08 0.08 0.09 0.09 0.07 0.06 0.05 0.04 0.03 0.04 0.05 0.07 0.09 0.10 0.09 0.07 0.07 0.09 0.12 0.13 0.11
0.02 0.02 0.03 0.03 0.02 0.02 0.02 0.03 0.04 0.04 0.04 0.04 0.04 0.05 0.05 0.05 0.05 0.05 0.05 0.06 0.07 0.07 0.06 0.06 0.07 0.08 0.09 0.07 0.05 0.04 0.06 0.06 0.06 0.08 0.11 0.12 0.13 0.11 0.09 0.11 0.12 0.14 0.16
0.02 0.02 0.01 0.02 0.02 0.01 0.01 0.03 0.03 0.03 0.03 0.03 0.03 0.03 0.04 0.06 0.07 0.08 0.06 0.05 0.06 0.07 0.07 0.06 0.06 0.06 0.07 0.08 0.08 0.09 0.09 0.09 0.10 0.11 0.14 0.17 0.18 0.16 0.14 0.14 0.14 0.15 0.17
0.02 0.03 0.02 0.02 0.03 0.02 0.02 0.02 0.02 0.02 0.03 0.03 0.02 0.03 0.04 0.03 0.04 0.06 0.07 0.06 0.04 0.04 0.06 0.06 0.05 0.05 0.05 0.06 0.09 0.10 0.09 0.10 0.09 0.10 0.14 0.15 0.15 0.14 0.14 0.14 0.15 0.17 0.18
0.02 0.02 0.02 0.02 0.03 0.02 0.02 0.02 0.02 0.02 0.02 0.01 0.01 0.02 0.04 0.03 0.04 0.05 0.05 0.05 0.03 0.03 0.04 0.04 0.03 0.04 0.05 0.06 0.06 0.06 0.07 0.10 0.10 0.09 0.10 0.11 0.12 0.12 0.10 0.10 0.11 0.12 0.13
0.01 0.01 0.01 0.02 0.02 0.02 0.03 0.03 0.03 0.02 0.02 0.01 0.01 0.03 0.05 0.05 0.03 0.03 0.04 0.04 0.03 0.03 0.03 0.02 0.03 0.02 0.03 0.04 0.04 0.05 0.05 0.07 0.08 0.07 0.06 0.07 0.09 0.08 0.07 0.06 0.06 0.07 0.07
0.01 0.01 0.02 0.02 0.02 0.02 0.02 0.02 0.02 0.02 0.02 0.02 0.02 0.04 0.05 0.06 0.05 0.04 0.04 0.05 0.04 0.03 0.03 0.03 0.02 0.02 0.03 0.03 0.05 0.06 0.05 0.06 0.06 0.05 0.04 0.05 0.05 0.05 0.05 0.05 0.05 0.06 0.06
0.01 0.01 0.02 0.01 0.01 0.01 0.01 0.02 0.02 0.03 0.03 0.03 0.05 0.05 0.05 0.06 0.05 0.05 0.06 0.05 0.05 0.05 0.04 0.04 0.03 0.04 0.05 0.07 0.08 0.07 0.07 0.06 0.06 0.05 0.04 0.03 0.04 0.04 0.04 0.05 0.05 0.05 0.05
0.01 0.02 0.02 0.02 0.01 0.01 0.01 0.01 0.02 0.02 0.03 0.03 0.05 0.05 0.05 0.06 0.06 0.07 0.06 0.04 0.05 0.05 0.05 0.05 0.04 0.05 0.07 0.12 0.10 0.08 0.07 0.06 0.06 0.07 0.06 0.05 0.05 0.04 0.05 0.06 0.06 0.07 0.07
0.02 0.02 0.02 0.01 0.01 0.01 0.01 0.01 0.02 0.02 0.02 0.03 0.04 0.04 0.05 0.05 0.05 0.06 0.04 0.04 0.04 0.04 0.03 0.03 0.03 0.03 0.03 0.04 0.05 0.05 0.05 0.06 0.05 0.05 0.06 0.07 0.07 0.07 0.06 0.06 0.06 0.06 0.07
0.03 0.02 0.01 0.01 0.01 0.01 0.01 0.01 0.02 0.02 0.03 0.03 0.04 0.04 0.04 0.04 0.04 0.06 0.04 0.03 0.03 0.02 0.02 0.02 0.02 0.01 0.01 0.02 0.02 0.04 0.05 0.04 0.03 0.03 0.04 0.06 0.08 0.08 0.08 0.07 0.06 0.05 0.05
0.02 0.01 0.00 0.00 0.01 0.01 0.02 0.04 0.05 0.05 0.06 0.05 0.04 0.04 0.03 0.03 0.04 0.04 0.02 0.02 0.03 0.02 0.02 0.02 0.02 0.02 0.03 0.04 0.05 0.05 0.04 0.03 0.02 0.02 0.02 0.02 0.04 0.05 0.07 0.08 0.07 0.06 0.05
0.01 0.01 0.00 0.01 0.01 0.01 0.03 0.05 0.06 0.08 0.10 0.09 0.07 0.05 0.04 0.03 0.03 0.03 0.03 0.03 0.03 0.02 0.03 0.03 0.03 0.03 0.03 0.03 0.02 0.02 0.03 0.03 0.02 0.01 0.01 0.02 0.03 0.03 0.03 0.04 0.05 0.06 0.06
0.01 0.01 0.01 0.01 0.01 0.01 0.02 0.02 0.02 0.03 0.05 0.06 0.06 0.05 0.03 0.01 0.01 0.02 0.02 0.03 0.02 0.02 0.02 0.02 0.01 0.01 0.01 0.01 0.01 0.01 0.01 0.02 0.02 0.02 0.02 0.01 0.01 0.01 0.01 0.01 0.02 0.02 0.03
0.01 0.01 0.01 0.02 0.02 0.02 0.02 0.02 0.02 0.02 0.01 0.01 0.01 0.02 0.01 0.01 0.01 0.01 0.01 0.01 0.01 0.01 0.01 0.02 0.02 0.01 0.01 0.01 0.01 0.02 0.02 0.02 0.01 0.01 0.01 0.01 0.01 0.01 0.01 0.01 0.01 0.01 0.02
0.02 0.02 0.02 0.02 0.02 0.02 0.03 0.03 0.03 0.02 0.01 0.01 0.01 0.01 0.00 0.00 0.00 0.01 0.01 0.01 0.01 0.01 0.01 0.01 0.02 0.02 0.01 0.01 0.01 0.01 0.01 0.01 0.01 0.01 0.01 0.01 0.01 0.02 0.02 0.01 0.02 0.02 0.03
0.04 0.03 0.02 0.01 0.02 0.02 0.04 0.05 0.04 0.02 0.01 0.01 0.01 0.01 0.01 0.01 0.01 0.01 0.01 0.00 0.00 0.00 0.01 0.01 0.01 0.01 0.01 0.01 0.01 0.01 0.01 0.01 0.01 0.01 0.01 0.01 0.01 0.02 0.02 0.02 0.01 0.02 0.03
MSLP
1014.91 1015.19 1015.44 1015.65 1015.86 1016.07 1016.28 1016.51 1016.73 1016.94 1017.13 1017.28 1017.40 1017.48 1017.53 1017.57 1017.61 1017.67 1017.75 1017.85 1017.98 1018.13 1018.30 1018.47 1018.64 1018.80 1018.95 1019.09 1019.21 1019.33 1019.43 1019.53 1019.64 1019.76 1019.89 1020.04 1020.19 1020.35 1020.49 1020.62 1020.73 1020.81 1020.87
1014.89 1015.19 1015.48 1015.75 1016.00 1016.24 1016.46 1016.67 1016.87 1017.04 1017.19 1017.30 1017.39 1017.44 1017.48 1017.50 1017.52 1017.55 1017.59 1017.66 1017.75 1017.88 1018.02 1018.18 1018.35 1018.53 1018.69 1018.84 1018.96 1019.06 1019.15 1019.23 1019.32 1019.42 1019.55 1019.70 1019.87 1020.04 1020.22 1020.38 1020.52 1020.63 1020.72
1014.82 1015.15 1015.48 1015.80 1016.11 1016.40 1016.65 1016.87 1017.05 1017.19 1017.30 1017.37 1017.42 1017.45 1017.45 1017.44 1017.43 1017.41 1017.40 1017.41 1017.45 1017.51 1017.61 1017.74 1017.90 1018.06 1018.23 1018.39 1018.52 1018.63 1018.71 1018.79 1018.86 1018.96 1019.08 1019.22 1019.40 1019.60 1019.80 1019.99 1020.16 1020.30 1020.42
1014.73 1015.07 1015.44 1015.82 1016.19 1016.53 1016.82 1017.05 1017.23 1017.35 1017.43 1017.47 1017.49 1017.48 1017.45 1017.41 1017.35 1017.28 1017.21 1017.14 1017.09 1017.07 1017.10 1017.17 1017.28 1017.43 1017.59 1017.75 1017.89 1018.01 1018.11 1018.19 1018.27 1018.36 1018.48 1018.62 1018.80 1019.00 1019.21 1019.42 1019.61 1019.79 1019.94
1014.62 1014.95 1015.35 1015.77 1016.20 1016.59 1016.93 1017.19 1017.37 1017.49 1017.55 1017.57 1017.56 1017.53 1017.48 1017.41 1017.31 1017.19 1017.05 1016.89 1016.75 1016.63 1016.56 1016.54 1016.59 1016.69 1016.82 1016.98 1017.13 1017.27 1017.39 1017.49 1017.59 1017.68 1017.80 1017.94 1018.10 1018.29 1018.49 1018.70 1018.89 1019.08 1019.25
1014.49 1014.81 1015.21 1015.67 1016.14 1016.58 1016.95 1017.24 1017.44 1017.56 1017.61 1017.62 1017.61 1017.58 1017.52 1017.44 1017.32 1017.16 1016.95 1016.71 1016.47 1016.24 1016.06 1015.94 1015.90 1015.94 1016.03 1016.17 1016.33 1016.49 1016.64 1016.77 1016.89 1017.00 1017.11 1017.23 1017.37 1017.53 1017.70 1017.88 1018.05 1018.22 1018.40
1014.37 1014.65 1015.04 1015.51 1016.00 1016.47 1016.88 1017.19 1017.41 1017.53 1017.60 1017.62 1017.62 1017.60 1017.57 1017.49 1017.37 1017.19 1016.94 1016.64 1016.31 1015.98 1015.69 1015.46 1015.33 1015.29 1015.33 1015.44 1015.60 1015.77 1015.95 1016.11 1016.25 1016.37 1016.48 1016.59 1016.69 1016.80 1016.92 1017.04 1017.17 1017.31 1017.46
1014.26 1014.49 1014.85 1015.31 1015.81 1016.29 1016.70 1017.03 1017.26 1017.40 1017.48 1017.53 1017.56 1017.58 1017.58 1017.55 1017.45 1017.28 1017.02 1016.68 1016.29 1015.88 1015.49 1015.17 1014.94 1014.82 1014.81 1014.88 1015.03 1015.21 1015.40 1015.58 1015.74 1015.88 1015.98 1016.07 1016.13 1016.19 1016.23 1016.28 1016.34 1016.42 1016.53
1014.15 1014.33 1014.66 1015.09 1015.56 1016.03 1016.44 1016.77 1017.01 1017.16 1017.26 1017.34 1017.41 1017.48 1017.54 1017.56 1017.52 1017.38 1017.14 1016.80 1016.38 1015.93 1015.48 1015.09 1014.79 1014.60 1014.53 1014.56 1014.68 1014.85 1015.04 1015.24 1015.41 1015.55 1015.65 1015.71 1015.73 1015.73 1015.70 1015.67 1015.65 1015.66 1015.72
1014.03 1014.17 1014.45 1014.84 1015.28 1015.72 1016.11 1016.43 1016.66 1016.83 1016.95 1017.06 1017.18 1017.30 1017.42 1017.51 1017.52 1017.45 1017.25 1016.94 1016.55 1016.09 1015.63 1015.20 1014.85 1014.62 1014.49 1014.48 1014.57 1014.71 1014.89 1015.08 1015.25 1015.39 1015.47 1015.51 1015.49 1015.43 1015.34 1015.24 1015.15 1015.09 1015.08
1013.88 1013.98 1014.22 1014.56 1014.96 1015.36 1015.72 1016.02 1016.24 1016.41 1016.55 1016.69 1016.84 1017.02 1017.19 1017.34 1017.43 1017.42 1017.30 1017.05 1016.71 1016.29 1015.85 1015.44 1015.08 1014.82 1014.67 1014.62 1014.66 1014.77 1014.92 1015.08 1015.23 1015.34 1015.41 1015.41 1015.37 1015.27 1015.13 1014.98 1014.83 1014.71 1014.65
1013.67 1013.75 1013.95 1014.25 1014.60 1014.96 1015.28 1015.55 1015.76 1015.93 1016.08 1016.24 1016.43 1016.64 1016.86 1017.06 1017.21 1017.27 1017.23 1017.06 1016.80 1016.46 1016.09 1015.72 1015.40 1015.15 1014.98 1014.91 1014.91 1014.97 1015.07 1015.18 1015.28 1015.36 1015.39 1015.38 1015.30 1015.18 1015.02 1014.84 1014.65 1014.50 1014.40
1013.39 1013.45 1013.63 1013.89 1014.19 1014.51 1014.80 1015.04 1015.24 1015.41 1015.57 1015.74 1015.94 1016.17 1016.42 1016.66 1016.86 1016.99 1017.02 1016.95 1016.78 1016.55 1016.27 1015.99 1015.73 1015.52 1015.37 1015.28 1015.24 1015.24 1015.28 1015.32 1015.37 1015.39 1015.38 1015.34 1015.25 1015.12 1014.96 1014.77 1014.58 1014.41 1014.29
1013.03 1013.09 1013.25 1013.47 1013.74 1014.02 1014.28 1014.50 1014.69 1014.86 1015.02 1015.20 1015.41 1015.65 1015.92 1016.17 1016.40 1016.58 1016.68 1016.69 1016.64 1016.52 1016.36 1016.19 1016.03 1015.88 1015.76 1015.67 1015.60 1015.55 1015.52 1015.48 1015.45 1015.41 1015.36 1015.28 1015.18 1015.06 1014.90 1014.73 1014.55 1014.39 1014.27
1012.62 1012.68 1012.82 1013.02 1013.25 1013.50 1013.73 1013.94 1014.13 1014.30 1014.47 1014.66 1014.87 1015.11 1015.37 1015.63 1015.88 1016.08 1016.24 1016.33 1016.38 1016.38 1016.35 1016.30 1016.25 1016.18 1016.12 1016.04 1015.96 1015.86 1015.76 1015.65 1015.54 1015.43 1015.32 1015.21 1015.10 1014.98 1014.84 1014.70 1014.55 1014.41 1014.30
1012.20 1012.25 1012.37 1012.54 1012.75 1012.97 1013.18 1013.38 1013.57 1013.75 1013.93 1014.13 1014.34 1014.58 1014.84 1015.09 1015.34 1015.56 1015.75 1015.91 1016.04 1016.15 1016.24 1016.32 1016.37 1016.41 1016.41 1016.36 1016.28 1016.16 1016.00 1015.83 1015.64 1015.47 1015.31 1015.16 1015.04 1014.92 1014.80 1014.68 1014.56 1014.45 1014.35
1011.78 1011.83 1011.93 1012.07 1012.25 1012.44 1012.64 1012.83 1013.02 1013.21 1013.41 1013.62 1013.85 1014.09 1014.34 1014.58 1014.82 1015.05 1015.27 1015.47 1015.67 1015.87 1016.06 1016.25 1016.41 1016.54 1016.62 1016.62 1016.56 1016.44 1016.25 1016.03 1015.80 1015.57 1015.36 1015.18 1015.04 1014.91 1014.80 1014.69 1014.59 1014.49 1014.40
1011.41 1011.44 1011.51 1011.62 1011.76 1011.92 1012.10 1012.28 1012.48 1012.68 1012.90 1013.13 1013.38 1013.63 1013.88 1014.13 1014.37 1014.60 1014.83 1015.06 1015.31 1015.57 1015.84 1016.12 1016.37 1016.59 1016.74 1016.81 1016.80 1016.69 1016.51 1016.28 1016.02 1015.76 1015.51 1015.30 1015.13 1014.99 1014.86 1014.76 1014.65 1014.54 1014.44
1011.08 1011.08 1011.12 1011.19 1011.29 1011.42 1011.57 1011.74 1011.93 1012.15 1012.39 1012.65 1012.92 1013.20 1013.47 1013.72 1013.97 1014.21 1014.45 1014.70 1014.97 1015.27 1015.60 1015.93 1016.26 1016.55 1016.78 1016.92 1016.96 1016.90 1016.76 1016.54 1016.29 1016.02 1015.76 1015.53 1015.33 1015.16 1015.01 1014.86 1014.73 1014.60 1014.46
1010.77 1010.73 1010.73 1010.76 1010.82 1010.91 1011.02 1011.17 1011.36 1011.58 1011.84 1012.13 1012.44 1012.75 1013.06 1013.35 1013.62 1013.87 1014.12 1014.39 1014.68 1014.99 1015.34 1015.72 1016.09 1016.43 1016.72 1016.93 1017.04 1017.05 1016.97 1016.80 1016.58 1016.33 1016.08 1015.83 1015.60 1015.39 1015.20 1015.01 1014.82 1014.63 1014.45
1010.45 1010.38 1010.34 1010.32 1010.33 1010.37 1010.45 1010.57 1010.73 1010.95 1011.23 1011.55 1011.90 1012.26 1012.62 1012.96 1013.27 1013.56 1013.84 1014.12 1014.41 1014.73 1015.09 1015.47 1015.86 1016.23 1016.57 1016.84 1017.02 1017.10 1017.09 1017.00 1016.84 1016.63 1016.40 1016.15 1015.90 1015.65 1015.41 1015.15 1014.89 1014.64 1014.38
1010.10 1009.99 1009.91 1009.85 1009.81 1009.80 1009.83 1009.91 1010.04 1010.25 1010.54 1010.88 1011.28 1011.70 1012.12 1012.53 1012.91 1013.25 1013.57 1013.87 1014.17 1014.48 1014.82 1015.19 1015.57 1015.96 1016.32 1016.63 1016.87 1017.03 1017.10 1017.08 1016.99 1016.84 1016.65 1016.41 1016.15 1015.87 1015.57 1015.25 1014.92 1014.59 1014.26
1009.69 1009.56 1009.45 1009.35 1009.27 1009.21 1009.18 1009.21 1009.31 1009.49 1009.78 1010.14 1010.58 1011.06 1011.56 1012.05 1012.51 1012.92 1013.29 1013.62 1013.93 1014.24 1014.56 1014.90 1015.26 1015.63 1015.98 1016.31 1016.59 1016.81 1016.95 1017.01 1016.99 1016.91 1016.76 1016.55 1016.30 1016.00 1015.66 1015.29 1014.90 1014.50 1014.10
1009.26 1009.11 1008.97 1008.84 1008.72 1008.61 1008.53 1008.50 1008.56 1008.71 1008.98 1009.36 1009.83 1010.37 1010.94 1011.52 1012.06 1012.56 1012.99 1013.37 1013.70 1014.01 1014.31 1014.61 1014.93 1015.26 1015.59 1015.91 1016.20 1016.45 1016.64 1016.76 1016.81 1016.79 1016.69 1016.52 1016.28 1015.99 1015.64 1015.24 1014.80 1014.36 1013.91
1008.86 1008.70 1008.56 1008.40 1008.24 1008.09 1007.95 1007.87 1007.87 1007.98 1008.22 1008.59 1009.09 1009.67 1010.31 1010.97 1011.60 1012.17 1012.68 1013.10 1013.47 1013.78 1014.06 1014.32 1014.59 1014.87 1015.16 1015.44 1015.72 1015.97 1016.19 1016.35 1016.45 1016.48 1016.43 1016.30 1016.10 1015.83 1015.49 1015.10 1014.66 1014.20 1013.73
1008.58 1008.42 1008.27 1008.10 1007.91 1007.71 1007.52 1007.37 1007.31 1007.37 1007.58 1007.93 1008.43 1009.04 1009.72 1010.44 1011.14 1011.79 1012.36 1012.84 1013.24 1013.56 1013.82 1014.05 1014.27 1014.49 1014.72 1014.96 1015.20 1015.43 1015.64 1015.82 1015.94 1016.01 1016.01 1015.93 1015.77 1015.55 1015.25 1014.89 1014.48 1014.04 1013.59
Thickness
5766 5765 5764 5764 5763 5762 5761 5760 5759 5759 5758 5758 5757 5756 5755 5755 5754 5753 5753 5752 5751 5750 5750 5749 5747 5746 5744 5743 5741 5740 5739 5738 5737 5736 5735 5734 5732 5731 5730 5729 5728 5726 5725
5767 5765 5764 5763 5762 5761 5761 5760 5759 5758 5757 5756 5756 5755 5755 5754 5753 5752 5752 5751 5750 5749 5749 5747 5746 5745 5744 5743 5742 5740 5739 5738 5736 5735 5734 5733 5732 5731 5730 5729 5728 5726 5725
5767 5765 5764 5763 5762 5762 5761 5760 5759 5758 5756 5755 5754 5754 5754 5753 5752 5751 5750 5750 5749 5748 5747 5746 5746 5745 5744 5743 5742 5740 5738 5737 5736 5735 5734 5733 5732 5731 5730 5728 5727 5726 5725
5767 5766 5764 5763 5763 5762 5760 5759 5758 5756 5754 5753 5752 5752 5752 5752 5751 5750 5749 5749 5748 5747 5746 5746 5745 5744 5743 5742 5741 5739 5738 5737 5736 5735 5733 5732 5731 5730 5729 5728 5727 5726 5724
5767 5766 5764 5763 5763 5761 5759 5758 5756 5754 5752 5751 5751 5750 5750 5750 5750 5750 5749 5748 5747 5746 5745 5744 5744 5743 5742 5741 5740 5738 5737 5735 5735 5734 5733 5731 5730 5729 5728 5727 5726 5725 5724
5768 5766 5764 5763 5762 5760 5758 5757 5755 5753 5752 5750 5750 5748 5748 5748 5748 5748 5747 5747 5746 5745 5743 5743 5742 5741 5741 5740 5738 5737 5736 5734 5733 5732 5731 5730 5729 5728 5727 5726 5725 5724 5723
5768 5766 5764 5762 5761 5758 5756 5755 5753 5751 5749 5749 5744 5741 5743 5745 5745 5746 5745 5745 5744 5743 5742 5741 5740 5739 5738 5738 5737 5736 5735 5733 5732 5731 5730 5729 5728 5727 5726 5725 5724 5723 5722
5769 5767 5764 5762 5760 5758 5755 5754 5752 5748 5747 5747 5741 5736 5732 5734 5739 5743 5742 5742 5741 5741 5740 5740 5738 5738 5737 5736 5735 5734 5734 5732 5731 5730 5729 5728 5727 5726 5724 5724 5723 5722 5721
5768 5767 5765 5762 5760 5758 5754 5753 5751 5747 5743 5744 5744 5737 5729 5726 5730 5735 5738 5739 5738 5738 5738 5738 5737 5736 5736 5735 5734 5733 5732 5731 5730 5729 5728 5726 5725 5723 5722 5721 5720 5720 5719
5768 5767 5764 5762 5760 5758 5755 5752 5751 5748 5744 5740 5741 5740 5738 5735 5728 5726 5731 5734 5735 5735 5736 5736 5735 5734 5733 5732 5731 5730 5729 5729 5728 5727 5726 5725 5723 5722 5720 5719 5718 5717 5716
5768 5766 5764 5761 5759 5757 5754 5752 5750 5748 5745 5741 5739 5738 5736 5734 5732 5726 5723 5726 5729 5731 5732 5733 5732 5731 5730 5729 5729 5728 5727 5726 5725 5724 5723 5722 5721 5719 5718 5717 5715 5714 5713
5766 5765 5763 5761 5758 5756 5754 5752 5749 5747 5745 5742 5740 5738 5735 5731 5729 5726 5722 5722 5722 5725 5728 5728 5728 5727 5726 5725 5724 5724 5723 5723 5722 5721 5720 5719 5717 5716 5715 5713 5712 5711 5709
5763 5762 5762 5759 5757 5755 5753 5751 5748 5746 5744 5741 5739 5737 5735 5733 5732 5729 5724 5720 5719 5720 5722 5722 5723 5723 5722 5721 5720 5719 5719 5718 5718 5717 5716 5715 5714 5712 5710 5709 5707 5706 5705
5763 5762 5761 5759 5756 5754 5752 5750 5747 5745 5743 5741 5739 5737 5735 5734 5732 5729 5725 5719 5714 5713 5715 5716 5718 5719 5718 5717 5716 5715 5713 5713 5712 5712 5711 5710 5709 5707 5704 5703 5702 5700 5698
5763 5761 5759 5757 5755 5753 5750 5748 5745 5743 5741 5739 5738 5736 5734 5733 5731 5729 5726 5722 5714 5707 5707 5711 5711 5713 5713 5712 5711 5709 5708 5707 5706 5705 5704 5703 5702 5700 5699 5697 5695 5693 5691
5761 5759 5756 5754 5752 5751 5748 5745 5742 5741 5739 5737 5735 5733 5731 5730 5728 5726 5723 5721 5717 5711 5705 5707 5707 5707 5707 5707 5705 5703 5702 5700 5700 5698 5697 5695 5693 5692 5691 5689 5688 5686 5684
5758 5755 5753 5750 5748 5747 5745 5742 5739 5737 5735 5732 5731 5729 5727 5726 5723 5722 5720 5717 5714 5710 5704 5702 5702 5701 5700 5699 5697 5696 5694 5693 5692 5691 5690 5687 5685 5684 5683 5682 5680 5678 5676
5754 5752 5750 5747 5745 5743 5741 5738 5735 5734 5731 5728 5726 5724 5722 5721 5718 5717 5715 5712 5710 5708 5703 5697 5695 5694 5693 5692 5691 5689 5687 5686 5684 5683 5682 5680 5678 5676 5675 5674 5672 5670 5669
5750 5748 5746 5743 5740 5739 5737 5735 5733 5730 5727 5725 5723 5720 5718 5715 5712 5711 5709 5707 5705 5703 5699 5694 5690 5689 5687 5685 5683 5681 5680 5678 5677 5675 5674 5672 5671 5669 5668 5667 5665 5664 5662
5747 5744 5742 5739 5737 5735 5733 5731 5729 5726 5723 5721 5718 5716 5714 5711 5708 5706 5704 5701 5699 5696 5692 5689 5685 5682 5680 5678 5676 5673 5671 5670 5669 5668 5666 5664 5663 5661 5660 5659 5658 5656 5655
5744 5741 5738 5735 5733 5731 5729 5726 5724 5722 5718 5715 5712 5710 5709 5707 5705 5703 5700 5696 5694 5690 5686 5682 5678 5675 5673 5670 5668 5666 5663 5662 5660 5659 5658 5656 5655 5653 5652 5651 5650 5649 5648
5739 5736 5733 5730 5727 5726 5724 5722 5719 5716 5713 5709 5706 5704 5703 5701 5700 5698 5696 5693 5690 5686 5681 5677 5674 5670 5668 5666 5664 5662 5657 5654 5651 5652 5650 5648 5647 5646 5645 5644 5644 5643 5641
5734 5731 5728 5725 5722 5720 5719 5717 5714 5711 5708 5705 5702 5699 5698 5696 5694 5691 5689 5687 5684 5682 5680 5676 5671 5667 5665 5663 5660 5656 5654 5651 5649 5648 5645 5641 5641 5639 5639 5638 5637 5636 5634
5729 5726 5723 5720 5717 5715 5714 5712 5709 5706 5703 5700 5698 5695 5692 5689 5687 5684 5682 5679 5677 5675 5674 5672 5669 5666 5664 5661 5658 5655 5651 5647 5645 5643 5642 5636 5635 5633 5633 5632 5631 5629 5628
5724 5721 5719 5716 5713 5710 5709 5707 5704 5700 5697 5694 5692 5690 5687 5683 5681 5678 5674 5671 5669 5668 5667 5666 5664 5662 5659 5657 5654 5649 5644 5640 5636 5636 5636 5633 5630 5628 5627 5626 5625 5624 5622
5719 5717 5714 5712 5709 5706 5704 5702 5699 5695 5690 5687 5685 5683 5681 5678 5675 5672 5668 5664 5661 5659 5658 5657 5655 5654 5652 5650 5648 5645 5641 5636 5631 5629 5631 5628 5625 5622 5619 5620 5619 5617 5615